Weather History for Annapolis Naval Academy, MD

Change the Weather History Date:

Saturday, August 3, 2013

  Actual Average (KBWI) Record (KBWI)
Temperature  
Mean Temperature 73 °F 76 °F  
Max Temperature 78 °F 86 °F 100 °F (1931)
Min Temperature 69 °F 67 °F 55 °F (1959)
Degree Days  
Heating Degree Days 0 0  
Month to date heating degree days 0  
Since 1 June heating degree days 15  
Since 1 July heating degree days 0  
Cooling Degree Days 8 11  
Month to date cooling degree days 35  
Year to date cooling degree days 729  
Since 1 June cooling degree days 645  
Growing Degree Days 23 (Base 50)    
Moisture  
Dew Point 66 °F    
Average Humidity 81    
Maximum Humidity 93    
Minimum Humidity 66    
Precipitation  
Precipitation 0.04 in 0.12 in 3.35 in (1885)
Month to date precipitation 0.36  
Year to date precipitation 24.92  
Snow  
Snow 0.00 in 0.00 in - ()
Month to date snowfall 0.0  
Since 1 July snowfall 0.0  
Snow Depth -    
Sea Level Pressure  
Sea Level Pressure 29.95 in    
Wind  
Wind Speed 2 mph (WNW)    
Max Wind Speed 5 mph    
Max Gust Speed -    
Visibility 9 miles    
Events Rain    
T = Trace of Precipitation, MM = Missing Value Source: NWS Daily Summary

Daily Weather History Graph

Daily Weather History Graph

Search for Another Location

Airport:

Trip Planner

Search our weather history database for the weather conditions in past years. The results will help you decide how hot, cold, wet, or windy it might be!

Date:

Astronomy

Aug. 03, 2013 Rise Set
Actual Time 6:08 AM EDT 8:14 PM EDT
Civil Twilight 5:39 AM EDT 8:44 PM EDT
Nautical Twilight 5:02 AM EDT 9:20 PM EDT
Astronomical Twilight 4:23 AM EDT 9:59 PM EDT
Moon 3:16 AM EDT (8/3) 5:55 PM EDT (8/3)
Length of Visible Light 15h 05m
Length of Day
14h 06m
Waning Crescent, 9% of the Moon is Illuminated
Aug 3
Waning Crescent
Aug 6
New
Aug 14
First Quarter
Aug 20
Full
Aug 28
Last Quarter

Hourly Weather History & Observations

Time (EDT) Temp. Dew Point Humidity Pressure Visibility Wind Dir Wind Speed Gust Speed Precip Events Conditions
12:54 AM 73.9 °F 66.0 °F 76% 29.95 in 10.0 mi Calm Calm - N/A   Clear
1:54 AM 73.0 °F 68.0 °F 84% 29.94 in 10.0 mi NW 4.6 mph - N/A   Clear
2:54 AM 71.1 °F 66.0 °F 84% 29.94 in 10.0 mi Calm Calm - N/A   Clear
3:54 AM 71.1 °F 68.0 °F 90% 29.94 in 10.0 mi Calm Calm - N/A   Clear
4:54 AM 70.0 °F 66.9 °F 90% 29.94 in 10.0 mi Calm Calm - N/A   Clear
5:54 AM 71.1 °F 66.9 °F 87% 29.95 in 10.0 mi Calm Calm - N/A   Clear
6:54 AM 71.1 °F 66.9 °F 87% 29.96 in 9.0 mi WNW 3.5 mph - N/A   Clear
7:54 AM 72.0 °F 66.9 °F 84% 29.97 in 9.0 mi Calm Calm - N/A   Clear
8:54 AM 73.9 °F 66.0 °F 76% 29.99 in 10.0 mi Calm Calm - 0.00 in Rain Light Rain
9:54 AM 73.0 °F 68.0 °F 84% 29.98 in 10.0 mi Calm Calm - 0.01 in Rain Light Rain
10:54 AM 75.0 °F 66.9 °F 76% 29.98 in 10.0 mi WNW 4.6 mph - 0.00 in   Partly Cloudy
11:54 AM 77.0 °F 66.9 °F 71% 29.98 in 10.0 mi NNW 4.6 mph - N/A   Clear
12:54 PM 77.0 °F 64.9 °F 66% 29.97 in 10.0 mi NW 4.6 mph - 0.00 in Rain Light Rain
1:54 PM 75.9 °F 68.0 °F 76% 29.96 in 10.0 mi Variable 3.5 mph - 0.01 in   Partly Cloudy
2:54 PM 75.0 °F 64.9 °F 71% 29.95 in 10.0 mi WNW 4.6 mph - N/A   Mostly Cloudy
3:54 PM 73.9 °F 64.0 °F 71% 29.95 in 10.0 mi WNW 4.6 mph - N/A   Scattered Clouds
4:54 PM 73.9 °F 64.0 °F 71% 29.94 in 10.0 mi WNW 3.5 mph - 0.00 in Rain Light Rain
5:54 PM 73.0 °F 64.9 °F 76% 29.95 in 10.0 mi Variable 3.5 mph - 0.00 in   Overcast
6:54 PM 71.1 °F 64.9 °F 81% 29.95 in 4.0 mi West 4.6 mph - 0.01 in Rain Light Rain
7:54 PM 71.1 °F 66.9 °F 87% 29.93 in 8.0 mi Calm Calm - 0.01 in   Overcast
8:54 PM 71.1 °F 68.0 °F 90% 29.93 in 8.0 mi West 4.6 mph - 0.00 in Rain Light Rain
9:54 PM 70.0 °F 66.9 °F 90% 29.95 in 8.0 mi West 4.6 mph - 0.00 in Rain Light Rain
10:54 PM 69.1 °F 66.9 °F 93% 29.94 in 9.0 mi WNW 3.5 mph - 0.00 in   Clear
11:54 PM 69.1 °F 66.9 °F 93% 29.93 in 9.0 mi WNW 4.6 mph - N/A   Mostly Cloudy